Location: Althorst
(53.6379°N, 10.7715°E)
Time: 14:19:47
(UTC+00:00)

Feng Yun 1-1 Rocket - Pass Details

Date: 10 December 2019
Orbit: 830 x 933 km, 99.2° (Epoch: 22 January)

Event Time Altitude Azimuth Distance (km) Brightness Sun altitude
Rises 16:38:33 0° 168° (SSE) 3,368 7.4 -13.9°
Reaches altitude 10° 16:40:54 10° 171° (S) 2,435 6.7 -14.2°
Maximum altitude 16:46:16 71° 255° (WSW) 881 4.5 -15.0°
Drops below altitude 10° 16:51:42 10° 340° (NNW) 2,463 6.7 -15.7°
Sets 16:54:06 0° 343° (NNW) 3,411 7.4 -16.1°
